Hourly Data Report for July 13, 2021

DRYDEN REGIONAL
ONTARIO
Current Station Operator: NAVCAN

49°49'39.000" N
92°44'39.000" W
412.70 m
6032125
71527
YHD

Download Data

Hourly Data (July 2021)
Hourly Data Report for July 13, 2021
TIME
LST
Temp Definition
°C
Dew Point Definition
°C
Rel Hum Definition
%
Precip. Amount Definition
mm

Wind Dir Definition
10's deg

Wind Spd Definition
km/h
Visibility Definition
km
Stn Press Definition
kPa
Hmdx Definition


Wind Chill Definition


Weather Definition


00:00 22.4 13.4 56 0.0 22 21 16.1 96.41 25   LegendNANA
01:00 21.7 14.0 61 0.0 22 11 16.1 96.41 25   LegendNANA
02:00 18.1 16.3 89 0.8 22 8 14.5 96.38     Rain
03:00 17.8 16.2 90 0.0 23 9 16.1 96.36     LegendNANA
04:00 17.1 16.0 93 0.0 23 11 16.1 96.38     LegendNANA
05:00 17.1 16.3 95 0.0 24 8 11.3 96.43     LegendNANA
06:00 17.4 16.4 94 0.0 35 11 6.4 96.48     Fog
07:00 17.6 16.3 92 0.0 35 9 2.8 96.51     Fog
08:00 18.8 15.7 82 0.0 36 17 4.0 96.55     Haze
09:00 20.1 15.2 73 0.0 32 13 4.8 96.55     Haze
10:00 21.5 15.4 68 0.0 30 11 4.8 96.57 26   Haze
11:00 22.5 14.7 61 0.0 33 5 8.1 96.58 26   Haze
12:00 23.3 13.9 55 0.0 33 15 9.7 96.58 27   Haze
13:00 25.0 13.0 47 0.0 31 13 11.3 96.59 28   LegendNANA
14:00 24.9 12.2 45 0.0 33 15 9.7 96.61 27   Haze
15:00 25.3 12.1 43 0.0 35 13 6.4 96.62 28   Haze
16:00 25.1 12.7 46 0.0 33 15 9.7 96.63 28   Haze
17:00 24.4 12.1 46 0.0 36 13 14.5 96.64 27   LegendNANA
18:00 23.0 12.2 50 0.0 34 9 16.1 96.68 25   LegendNANA
19:00 21.3 11.2 52 0.0 36 9 16.1 96.72     LegendNANA
20:00 19.7 12.1 61 0.0 2 11 16.1 96.76     LegendNANA
21:00 18.4 12.0 66 0.0 2 11 16.1 96.84     LegendNANA
22:00 17.4 11.7 69 0.0 2 11 16.1 96.87     LegendNANA
23:00 16.3 11.5 73 0.0 3 9 16.1 96.91     LegendNANA

Notes on Data Quality.

Legend

  • E = Estimated
  • M = Missing
  • NA = Not Available*
  • [empty] = Indicates an unobserved value
Date modified: